Location: Helsinki
(60.1699°N, 24.9384°E)
Time: 20:18:06
(UTC+02:00)

Transit 4A - Pass Details

Date: 03 November 2020
Orbit: 862 x 982 km, 66.8° (Epoch: 29 November)

Event Time Altitude Azimuth Distance (km) Brightness Sun altitude
Rises 13:00:13 0° 162° (SSE) 3,621 12.0 13.7°
Reaches altitude 10° 13:03:36 10° 144° (SE) 2,699 11.0 13.6°
Maximum altitude 13:07:32 18° 105° (ESE) 2,222 10.0 13.5°
Drops below altitude 10° 13:11:31 10° 66° (ENE) 2,739 10.0 13.3°
Sets 13:14:59 0° 48° (NE) 3,698 10.5 13.2°
